Location: Dittelbrunn
(50.0738°N, 10.2196°E)
Time: 13:32:50
(UTC+00:00)

Cosmos 2251 Rocket - Pass Details

Date: 18 September 2020
Orbit: 765 x 792 km, 74.0° (Epoch: 21 October)

Event Time Altitude Azimuth Distance (km) Brightness Sun altitude
Rises 20:05:31 0° 339° (NNW) 3,303 7.7 -24.8°
Reaches altitude 10° 20:08:07 10° 348° (NNW) 2,369 6.6 -25.1°
Enters shadow 20:12:50 36° 49° (NE) 1,234 4.4 -25.7°
